Regional Weather Roundup
Issued by NWS

Home | Current Version | Previous Version | Text Only | Print | Product List | Glossary On
Versions: 1 2 3 4 5 6 7 8 9 10 11 12 13 14 15 16 17 18 19 20 21 22 23 24 25 26 27 28 29 30 31 32 33 34 35 36 37 38 39 40 41 42 43 44 45 46 47 48 49 50
000
ASUS43 KMKX 150210
RWRWI

WISCONSIN REGIONAL WEATHER ROUNDUP
NATIONAL WEATHER SERVICE MILWAUKEE/SULLIVAN WI
800 PM CST THU DEC 14 2017

NOTE: "FAIR" INDICATES FEW OR NO CLOUDS BELOW 12,000 FEET WITH NO
SIGNIFICANT WEATHER AND/OR OBSTRUCTIONS TO VISIBILITY.

WIZ001-002-006>008-014>016-023>028-150300-
NORTHWEST WISCONSIN

CITY           SKY/WX    TMP DP  RH WIND       PRES   REMARKS
SUPERIOR ARPT  FLURRIES  19  11  71 W8        29.96F WCI   8
ASHLAND        FLURRIES  17  12  80 SW9       29.93F WCI   6
HAYWARD        LGT SNOW  17  13  84 W5        29.93S FOG     WCI  10
SIREN          FLURRIES  19  14  81 W5        29.97F WCI  12
CUMBERLAND     FLURRIES  18  12  79 W10       29.95F WCI   6
RICE LAKE      FLURRIES  19  14  81 CALM      29.98S
CHETEK         CLOUDY    19  14  80 W6        29.97S WCI  11
LADYSMITH      FLURRIES  19  16  88 W7        29.95S WCI  10
EAU CLAIRE     LGT SNOW  21  16  81 W7        29.98S WCI  12
MENOMONIE      CLOUDY    22  16  77 W10       30.00S WCI  11
NEW RICHMOND   CLOUDY    20  14  76 W7        29.99F WCI  11
OSCEOLA        CLOUDY    21  15  78 W6        30.02F WCI  14
$$

WIZ003>005-009-010-017-018-150300-
NORTH CENTRAL WISCONSIN

CITY           SKY/WX    TMP DP  RH WIND       PRES   REMARKS
MANITOWISH WTR LGT SNOW  15  14  96 W7        29.86F WCI   5
ARBOR VITAE    LGT SNOW  18  15  89 W3        29.86F
WOODRUFF       LGT SNOW  18  15  89 W3        29.86F
RHINELANDER    LGT SNOW  17  14  88 W7        29.87F FOG     WCI   8
EAGLE RIVER    LGT SNOW  15  11  86 CALM      29.86F
LAND O LAKES   LGT SNOW  15  12  89 CALM      29.87F
PHILLIPS       LGT SNOW  16  13  91 W3        29.89F
TOMAHAWK       LGT SNOW  17  14  89 W3        29.89F
MEDFORD        LGT SNOW  18  15  89 W7        29.91S WCI   8
MERRILL        LGT SNOW  19  16  88 W6        29.92F WCI  11
$$

WIZ029-030-035-036-043>047-150300-
CENTRAL WISCONSIN

CITY           SKY/WX    TMP DP  RH WIND       PRES   REMARKS
WAUSAU         CLOUDY    19  15  84 SW5       29.92F WCI  12
MOSINEE        CLOUDY    19  16  86 SW5       29.94F WCI  13
MARSHFIELD     CLOUDY    20  15  81 W5        29.93F WCI  13
STEVENS POINT  CLOUDY    19  13  79 SW5       29.96F WCI  12
WAUPACA        CLOUDY    23  16  75 S3        29.99F
WAUTOMA        FLURRIES  22  14  71 SW5       29.99F WCI  16
WISC RAPIDS    CLOUDY    21  12  68 SW8       29.97F WCI  11
CAMP DOUGLAS   MIX PCPN  23  13  65 S3        29.98S
$$

WIZ011>013-019>022-031-037>040-048>050-150300-
NORTHEAST WISCONSIN

CITY           SKY/WX    TMP DP  RH WIND       PRES   REMARKS
ANTIGO         FLURRIES  17  15  93 SW6       29.90F WCI   8
SHAWANO        CLOUDY    22  17  78 CALM      29.97F
OCONTO         CLOUDY    20  15  81 SW5       29.98F WCI  14
STURGEON BAY   CLOUDY    18  14  84 S6        29.98F WCI  10
GREEN BAY      FLURRIES  21  14  74 SW6       29.99F WCI  13
MANITOWOC      CLOUDY    19  12  74 SW8       30.02F WCI   9
APPLETON       FLURRIES  19  12  73 SW5       29.97F WCI  13
CLINTONVILLE   FLURRIES  19  16  86 SW3       29.98F
OSHKOSH        CLOUDY    21  14  74 SW7       30.00S WCI  12
$$

WIZ032>034-041-042-053>061-150300-
SOUTHWEST WISCONSIN

CITY           SKY/WX    TMP DP  RH WIND       PRES   REMARKS
LA CROSSE      CLOUDY    26  18  71 W6        30.01F WCI  19
SPARTA         CLOUDY    24  16  71 CALM      30.00S
VIROQUA        CLOUDY    23  19  85 W9        29.97F WCI  13
BOSCOBEL       CLOUDY    27  16  63 SW8       30.03F WCI  19
PRAIRIE DU CHI CLOUDY    27  15  61 SW6       30.03F WCI  20
PLATTEVILLE    CLOUDY    25  17  72 SW12      30.02F WCI  14
$$

WIZ056-057-062-063-064-067-068-150300-
SOUTH CENTRAL WISCONSIN

CITY           SKY/WX    TMP DP  RH WIND       PRES   REMARKS
REEDSBURG      CLOUDY    23  13  66 S5        29.99F WCI  17
BARABOO/DELLS  CLOUDY    22  13  67 CALM      29.99F
LONE ROCK      CLOUDY    25  16  68 SW5       30.02F WCI  19
MINERAL POINT  CLOUDY    27  19  74 SW9       30.00S WCI  17
MADISON        CLOUDY    24  12  60 VRB5      30.02F WCI  18
MIDDLETON      CLOUDY    25  13  61 SW7       30.01F WCI  17
WATERTOWN      CLOUDY    20  14  77 S3        30.02S
MONROE         CLOUDY    21  12  68 SW9       30.01S WCI  11
JANESVILLE     CLOUDY    21  12  68 W6        30.04S WCI  14
$$

WIZ051-052-058>065-066-070>072-150300-
SOUTHEAST WISCONSIN

CITY           SKY/WX    TMP DP  RH WIND       PRES   REMARKS
MILWAUKEE      CLOUDY    20  12  71 CALM      30.05S
WAUKESHA       CLOUDY    18  10  73 S3        30.03F
MILWAUKEE/TIMM CLOUDY    18   9  68 S3        30.04F
RACINE         CLOUDY    15   9  76 CALM      30.06F
BURLINGTON     CLOUDY    14  12  92 SW3       30.04S
KENOSHA        PTCLDY    16   8  71 S5        30.05S WCI   9
FOND DU LAC    CLOUDY    22  11  62 SW6       30.01S WCI  14
SHEBOYGAN      CLOUDY    17  12  80 SW6       30.01F WCI   9
WEST BEND      CLOUDY    14  12  92 CALM      30.01F
JUNEAU         CLOUDY    19  12  75 S3        30.02S
$$

LSZ147-162-150300-
LAKE SUPERIOR

STATION/POSITION TIME  TEMP    WIND        PRES    WAVE
                       AIR SEA DIR/SP/G            HT/PER
                 (UTC) (F)     (DEG/KT/KT) (MB)    (FT/S)
DEVILS ISLAND    0200   21     270/ 16/ 18 1013.9F
SAXON HARBOR     0140   19                 1013.2F
$$

LMZ867-665-643>646-150300-
LAKE MICHIGAN

STATION/POSITION TIME  TEMP    WIND        PRES    WAVE
                       AIR SEA DIR/SP/G            HT/PER
                 (UTC) (F)     (DEG/KT/KT) (MB)    (FT/S)
NORTHPORT PIER   0158   22     280/  6/ 16 1014.6F
KEWAUNEE LAKESHO 0142   19     230/  3/  6 1015.3F
SHEBOYGAN LAKESH 0200   20     240/  8/  9 1017.7F
PORT WASHINGTON  0140   19     270/  3/  6 1018.3F
MILWAUKEE LAKESH 0150   24     240/  6/  7   N/A
KENOSHA   LAKESH 0200   22     230/  4/  5 1017.9
$$

TC  - TEMPERATURE IN CELSIUS
VSB - VISIBILITY IN STATUTE MILES
WCI - WIND CHILL INDEX
HX  - HEAT INDEX





USA.gov is the U.S. government's official web portal to all federal, state and local government web resources and services.